EST,Max TemperatureF,Mean TemperatureF,Min TemperatureF,Max Dew PointF,MeanDew PointF,Min DewpointF,Max Humidity, Mean Humidity, Min Humidity, Max Sea Level PressureIn, Mean Sea Level PressureIn, Min Sea Level PressureIn, Max VisibilityMiles, Mean VisibilityMiles, Min VisibilityMiles, Max Wind SpeedMPH, Mean Wind SpeedMPH, Max Gust SpeedMPH,PrecipitationIn, CloudCover, Events, WindDirDegrees
2012-2-1,62,52,42,41,36,30,79,56,44,30.04,29.97,29.90,10,10,10,13,3,24,0.00,2,Rain,278
2012-2-2,45,38,32,32,28,20,85,64,52,30.27,30.10,30.03,10,10,10,13,4,23,0.00,4,,344
2012-2-3,44,37,30,21,18,16,64,49,32,30.49,30.41,30.30,10,10,10,8,3,,0.00,1,,322
2012-2-4,45,36,28,23,22,20,75,53,39,30.36,30.24,30.14,10,10,10,9,2,,0.00,2,,286
2012-2-5,41,34,26,22,18,15,72,56,35,30.21,30.17,30.13,10,10,10,9,2,,0.00,0,,358
2012-2-6,51,38,24,25,22,18,77,53,36,30.19,30.07,29.99,10,10,10,12,3,18,0.00,0,,241
2012-2-7,48,39,30,27,25,21,75,55,39,30.27,30.12,29.99,10,10,10,12,5,20,0.00,3,,314
2012-2-8,36,33,30,28,22,13,89,69,39,30.35,30.23,30.13,10,7,2,7,2,,0.00,5,Snow,86
2012-2-9,46,36,26,28,21,13,93,62,25,30.18,30.13,30.09,10,8,2,12,2,17,0.00,1,Snow,283
2012-2-10,44,34,25,26,21,19,81,58,40,30.18,30.08,29.95,10,10,8,8,2,,0.00,2,,237
2012-2-11,37,34,28,32,28,17,100,80,54,29.92,29.77,29.60,10,4,1,15,1,29,0.03,8,Snow,4
2012-2-12,32,26,19,21,10,-3,80,52,32,30.00,29.88,29.75,10,9,2,22,11,29,0.00,5,Snow,308
2012-2-13,43,34,26,17,14,11,58,46,31,30.06,30.02,29.97,10,10,10,14,7,21,0.00,2,,257
2012-2-14,46,40,33,37,22,13,100,54,26,30.14,30.08,30.03,10,9,4,8,2,,0.03,7,Rain,194
2012-2-15,46,39,30,37,34,27,97,83,61,30.31,30.19,30.09,10,6,2,8,1,,0.00,7,Rain,322
2012-2-16,41,34,26,39,34,25,100,92,78,30.33,30.18,30.02,7,4,1,5,0,,0.12,7,Rain,235
2012-2-17,50,42,32,43,34,18,100,77,28,30.05,30.01,29.96,10,5,1,15,2,22,0.00,5,,306
2012-2-18,48,38,27,36,24,16,93,61,33,30.11,30.03,29.90,10,9,6,10,4,17,0.03,3,Rain,285
2012-2-19,44,37,30,26,21,17,82,54,34,30.12,30.06,29.98,10,10,10,8,2,16,0.00,0,,2
2012-2-20,45,36,25,19,14,8,69,45,23,30.38,30.20,30.03,10,10,10,13,5,21,0.00,0,,359
2012-2-21,46,34,21,33,23,15,81,65,37,30.40,30.19,29.89,10,10,10,16,2,25,0.00,2,,178
2012-2-22,55,46,37,36,31,24,86,55,29,29.87,29.70,29.49,10,10,9,13,3,23,0.00,3,,245
2012-2-23,57,48,39,36,30,24,82,53,34,29.79,29.58,29.42,10,10,10,15,4,25,0.00,3,,314
2012-2-24,44,38,33,40,36,24,100,92,45,29.77,29.58,29.37,10,5,1,14,7,29,0.71,8,Rain,64
2012-2-25,42,38,33,26,19,8,65,45,35,30.06,29.68,29.46,10,10,9,23,14,38,0.00,3,Snow,286
2012-2-26,43,36,28,19,13,9,69,43,27,30.48,30.38,30.11,10,10,10,17,9,30,0.00,0,,307
2012-2-27,57,40,23,29,24,18,81,54,29,30.47,30.28,30.11,10,10,10,12,3,21,0.00,1,,237
2012-2-28,48,42,35,24,19,17,57,41,31,30.41,30.36,30.20,10,10,10,15,9,23,0.00,1,,320
2012-2-29,39,36,33,39,32,22,100,83,53,30.39,30.09,29.81,10,5,1,12,4,,0.25,7,Rain-Snow,66